Location: El Gallo
(32.4380°N, 116.9347°W)
Time: 20:30:34
(UTC+00:00)

Cosmos 1939 Rocket - Pass Details

Date: 01 October 2022
Orbit: 528 x 579 km, 97.4° (Epoch: 02 December)

Event Time Altitude Azimuth Distance (km) Brightness Sun altitude
Rises 12:56:17 0° 18° (NNE) 2,764 6.7 -10.4°
Reaches altitude 10° 12:58:30 10° 23° (NNE) 1,855 5.9 -10.0°
Maximum altitude 13:02:24 49° 99° (E) 719 3.9 -9.2°
Drops below altitude 10° 13:06:13 10° 175° (S) 1,812 5.5 -8.4°
Sets 13:08:21 0° 181° (S) 2,692 6.3 -7.9°
